Location: Finnegan
(51.1333°N, 112.0833°W)
Time: 21:27:05
(UTC+00:00)

Envisat - Pass Details

Date: 03 December 2021
Orbit: 764 x 766 km, 98.2° (Epoch: 26 January)

Event Time Altitude Azimuth Distance (km) Brightness Sun altitude
Rises 14:27:22 0° 4° (N) 3,248 6.0 -7.0°
Reaches altitude 10° 14:30:27 10° 344° (NNW) 2,317 5.1 -6.5°
Maximum altitude 14:33:34 17° 306° (NW) 1,896 4.4 -6.1°
Drops below altitude 10° 14:36:39 10° 268° (W) 2,307 5.0 -5.7°
Sets 14:39:44 0° 249° (WSW) 3,229 5.9 -5.3°
